| time (UTC) | temp F | wind direction | speed MPH | gust MPH | rain 1hr in | rain 24hr in | rain mn in | humidity % | barometer mb |
| 20260831072610 | 60 | 250 | 9.0 | 17.0 | 0.00 | 0.00 | 0.00 | 83 | 1004.8 |
| 20260831065615 | 59 | 246 | 8.0 | 18.0 | 0.00 | 0.00 | 0.00 | 84 | 1004.4 |
| 20260831062612 | 58 | 238 | 6.0 | 14.0 | 0.00 | 0.00 | 0.00 | 84 | 1003.9 |
| 20260831055619 | 58 | 0 | 7.0 | 13.0 | 0.00 | 0.00 | 0.00 | 84 | 1003.4 |
| 20260831052609 | 57 | 0 | 4.0 | 11.0 | 0.00 | 0.00 | 0.00 | 85 | 1003.1 |
| 20260831045608 | 57 | 0 | 6.0 | 11.0 | 0.00 | 0.00 | 0.00 | 85 | 1002.9 |
| 20260831042608 | 58 | 244 | 6.0 | 17.0 | 0.00 | 0.00 | 0.00 | 84 | 1002.3 |
| 20260831035618 | 59 | 262 | 8.0 | 16.0 | 0.00 | 0.00 | 0.00 | 83 | 1002.2 |
| 20260831032609 | 61 | 253 | 6.0 | 13.0 | 0.00 | 0.03 | 0.00 | 87 | 1001.9 |
| 20260831025606 | 61 | 200 | 4.0 | 10.0 | 0.00 | 0.03 | 0.00 | 87 | 1001.7 |
| 20260831012604 | 61 | 194 | 4.0 | 9.0 | 0.00 | 0.05 | 0.00 | 87 | 1002.3 |
| 20260831005609 | 61 | 191 | 4.0 | 10.0 | 0.00 | 0.06 | 0.00 | 86 | 1002.4 |
| 20260831002602 | 61 | 0 | 4.0 | 11.0 | 0.00 | 0.06 | 0.00 | 85 | 1002.4 |
| 20260830235606 | 62 | 227 | 5.0 | 18.0 | 0.00 | 0.10 | 0.00 | 83 | 1002.6 |
| 20260830232557 | 63 | 0 | 5.0 | 12.0 | 0.00 | 0.18 | 0.00 | 83 | 1002.7 |
| 20260830215559 | 64 | 190 | 2.0 | 7.0 | 0.00 | 0.25 | 0.20 | 78 | 1002.9 |
| 20260830212555 | 65 | 176 | 4.0 | 14.0 | 0.00 | 0.25 | 0.20 | 77 | 1003.3 |
| 20260830202549 | 66 | 209 | 5.0 | 13.0 | 0.00 | 0.25 | 0.20 | 75 | 1003.7 |
| 20260830195549 | 67 | 248 | 8.0 | 19.0 | 0.00 | 0.25 | 0.20 | 73 | 1003.8 |
| 20260830192550 | 67 | 211 | 6.0 | 16.0 | 0.00 | 0.25 | 0.20 | 73 | 1004.1 |
| 20260830185549 | 68 | 200 | 6.0 | 15.0 | 0.00 | 0.25 | 0.20 | 72 | 1003.9 |
| 20260830172549 | 71 | 176 | 7.0 | 15.0 | 0.00 | 0.25 | 0.20 | 68 | 1003.9 |
| 20260830165549 | 72 | 193 | 5.0 | 15.0 | 0.00 | 0.26 | 0.20 | 69 | 1003.9 |
| 20260830155549 | 73 | 0 | 7.0 | 13.0 | 0.00 | 0.56 | 0.20 | 66 | 1004.6 |
| 20260830152549 | 72 | 270 | 7.0 | 14.0 | 0.00 | 0.65 | 0.20 | 68 | 1004.9 |
| 20260830145551 | 73 | 254 | 8.0 | 18.0 | 0.00 | 0.65 | 0.20 | 69 | 1005.2 |
| 20260830142545 | 71 | 281 | 9.0 | 17.0 | 0.00 | 0.66 | 0.20 | 68 | 1005.2 |
| 20260830135545 | 74 | 223 | 7.0 | 15.0 | 0.00 | 0.66 | 0.20 | 64 | 1005.4 |
| 20260830132544 | 73 | 221 | 6.0 | 16.0 | 0.00 | 0.67 | 0.20 | 67 | 1005.8 |
| 20260830125544 | 72 | 0 | 6.0 | 15.0 | 0.00 | 0.69 | 0.20 | 68 | 1005.9 |
| 20260830115538 | 70 | 209 | 7.0 | 18.0 | 0.00 | 0.75 | 0.20 | 70 | 1006.4 |
| 20260830112539 | 70 | 263 | 6.0 | 13.0 | 0.00 | 0.76 | 0.20 | 74 | 1006.5 |
| 20260830105543 | 69 | 0 | 6.0 | 13.0 | 0.00 | 0.76 | 0.20 | 78 | 1006.7 |
| 20260830095541 | 66 | 0 | 8.0 | 15.0 | 0.00 | 0.76 | 0.20 | 85 | 1007.0 |
| 20260830085534 | 65 | 0 | 7.0 | 12.0 | 0.00 | 0.76 | 0.20 | 92 | 1007.0 |
| 20260830075532 | 64 | 223 | 7.0 | 11.0 | 0.00 | 0.76 | 0.20 | 93 | 1006.8 |